Regional Weather Roundup
Issued by NWS

Home | Current Version | Previous Version | Graphics & Text | Print | Product List | Glossary On
Versions: 1 2 3 4 5 6 7 8 9 10 11 12 13 14 15 16 17 18 19 20 21 22 23 24 25 26 27 28 29 30 31 32 33 34 35 36 37 38 39 40 41 42 43 44 45 46 47 48 49 50
704
ASUS43 KTOP 060508
RWRKS

WEATHER ROUNDUP FOR KANSAS
NATIONAL WEATHER SERVICE GOODLAND KS
1100 PM CST FRI FEB 05 2016

NOTE:  "FAIR" INDICATES FEW OR NO CLOUDS BELOW 12,000 FEET WITH NO
SIGNIFICANT WEATHER AND/OR OBSTRUCTIONS TO VISIBILITY.

KSZ001>006-013>018-027>032-041>047-060600-
NORTHWEST KANSAS

CITY           SKY/WX    TMP DP  RH WIND       PRES   REMARKS
GOODLAND       CLEAR     19  11  70 W13       30.28S WCI   6
HAYS           MOCLDY    28  18  64 NW8       30.29S
HILL CITY      CLEAR     26  20  77 NW9       30.30R
RUSSELL        PTCLDY    29  25  85 NW8       30.28R
$$

KSZ061>065-074>080-084>089-060600-
SOUTHWEST KANSAS

CITY           SKY/WX    TMP DP  RH WIND       PRES   REMARKS
DODGE CITY     CLEAR     26  21  81 NW12      30.30R WCI  16
ELKHART          N/A     27  14  58 W12         N/A  WCI  17
GARDEN CITY    CLEAR     26  20  77 NW10      30.30S WCI  16
GREAT BEND     MOCLDY    28  19  69 NW9       30.30R
LIBERAL        CLEAR     27  18  69 NW10      30.31S WCI  17
PRATT          CLOUDY    29  24  82 NW8       30.29S
$$

KSZ066>073-081>083-090>101-060600-
SOUTHEAST KANSAS

CITY           SKY/WX    TMP DP  RH WIND       PRES   REMARKS
CHANUTE        CLOUDY    39  26  59 S8        30.26S
COFFEYVILLE    CLOUDY    42  23  46 S5        30.29S
HUTCHINSON     PTCLDY    30  24  78 NW7       30.28S
MEDICINE LODGE   N/A     30  22  72 N3        30.28F
NEWTON         MOCLDY    34  23  64 NW14      30.27S WCI  24
PARSONS        CLOUDY    42  25  50 S5        30.28S
WICHITA INTL   MOCLDY    36  24  62 NW6       30.27S
WICHITA JABRA  CLOUDY    34  25  69 NW5       30.27S
WICHITA MCCONL CLEAR     37  24  60 N5        30.27S
WINFIELD       CLOUDY    41  28  60 NW9       30.30R
$$

KSZ007>012-019>026-033>040-048>060-102>105-060600-
NORTHEAST KANSAS

CITY           SKY/WX    TMP DP  RH WIND       PRES   REMARKS
CONCORDIA      CLEAR     29  25  85 W7        30.27S
EMPORIA        CLOUDY    34  21  59 W6        30.25S
LAWRENCE       CLOUDY    32  26  78 CALM      30.28S
MANHATTAN      PTCLDY    28  23  81 SW3       30.27S
MARYSVILLE     CLOUDY    32  28  86 NW6       30.27R
OLATHE IND     CLOUDY    36  25  64 SE5       30.27S
OLATHE EXE     CLOUDY    36  25  64 S3        30.27S
SALINA         MOCLDY    34  27  75 NW9       30.28S
TOPEKA BILLARD CLOUDY    32  25  75 CALM      30.27F
TOPEKA FORBES  CLOUDY    34  26  72 CALM      30.26S
$$




USA.gov is the U.S. government's official web portal to all federal, state and local government web resources and services.